| time (UTC) | temp C | wind direction | speed KPH | gust KPH | rain 1hr cm | rain 24hr cm | rain mn cm | humidity % | barometer mb |
| 20260507085515 | 11 | 31 | 4.8 | 12.9 | 0.00 | 0.00 | 0.00 | 36 | 1012.1 |
| 20260507084515 | 11 | 58 | 3.2 | 8.0 | 0.00 | 0.00 | 0.00 | 38 | 1011.9 |
| 20260507083536 | 10 | 51 | 3.2 | 12.9 | 0.00 | 0.00 | 0.00 | 38 | 1012.8 |
| 20260507082516 | 10 | 69 | 4.8 | 9.7 | 0.00 | 0.00 | 0.00 | 37 | 1012.8 |
| 20260507081516 | 10 | 88 | 3.2 | 6.4 | 0.00 | 0.00 | 0.00 | 38 | 1012.6 |
| 20260507080516 | 10 | 141 | 3.2 | 6.4 | 0.00 | 0.00 | 0.00 | 39 | 1012.9 |
| 20260507075517 | 10 | 139 | 3.2 | 8.0 | 0.00 | 0.00 | 0.00 | 39 | 1012.8 |
| 20260507074517 | 10 | 56 | 4.8 | 9.7 | 0.00 | 0.00 | 0.00 | 39 | 1012.8 |
| 20260507073537 | 10 | 73 | 3.2 | 6.4 | 0.00 | 0.00 | 0.00 | 41 | 1012.8 |
| 20260507072517 | 10 | 128 | 3.2 | 6.4 | 0.00 | 0.00 | 0.00 | 41 | 1013.1 |
| 20260507071517 | 10 | 48 | 4.8 | 11.3 | 0.00 | 0.00 | 0.00 | 40 | 1012.8 |
| 20260507070517 | 10 | 94 | 3.2 | 9.7 | 0.00 | 0.00 | 0.00 | 41 | 1012.5 |
| 20260507065517 | 10 | 98 | 3.2 | 8.0 | 0.00 | 0.00 | 0.00 | 40 | 1012.3 |
| 20260507064539 | 10 | 117 | 3.2 | 4.8 | 0.00 | 0.00 | 0.00 | 41 | 1012.4 |
| 20260507063519 | 9 | 110 | 3.2 | 8.0 | 0.00 | 0.00 | 0.00 | 42 | 1012.5 |
| 20260507062517 | 9 | 49 | 4.8 | 9.7 | 0.00 | 0.00 | 0.00 | 44 | 1012.7 |
| 20260507061518 | 8 | 90 | 1.6 | 8.0 | 0.00 | 0.00 | 0.00 | 44 | 1012.9 |
| 20260507060518 | 8 | 109 | 1.6 | 4.8 | 0.00 | 0.00 | 0.00 | 45 | 1012.8 |
| 20260507055518 | 8 | 53 | 4.8 | 11.3 | 0.00 | 0.00 | 0.00 | 45 | 1012.3 |
| 20260507054516 | 8 | 103 | 3.2 | 8.0 | 0.00 | 0.00 | 0.00 | 46 | 1012.2 |
| 20260507053515 | 7 | 54 | 3.2 | 9.7 | 0.00 | 0.00 | 0.00 | 49 | 1012.8 |
| 20260507052535 | 7 | 45 | 4.8 | 11.3 | 0.00 | 0.00 | 0.00 | 50 | 1012.7 |
| 20260507051516 | 7 | 77 | 1.6 | 6.4 | 0.00 | 0.00 | 0.00 | 52 | 1012.8 |
| 20260507050536 | 6 | 53 | 3.2 | 11.3 | 0.00 | 0.00 | 0.00 | 54 | 1012.7 |
| 20260507045516 | 6 | 132 | 1.6 | 3.2 | 0.00 | 0.00 | 0.00 | 56 | 1012.7 |
| 20260507044537 | 6 | 130 | 1.6 | 3.2 | 0.00 | 0.00 | 0.00 | 59 | 1012.7 |
| 20260507043557 | 5 | 137 | 0.0 | 3.2 | 0.00 | 0.00 | 0.00 | 62 | 1012.7 |
| 20260507042516 | 5 | 39 | 1.6 | 6.4 | 0.00 | 0.00 | 0.00 | 63 | 1012.7 |
| 20260507041537 | 4 | 139 | 0.0 | 1.6 | 0.00 | 0.00 | 0.00 | 69 | 1012.7 |
| 20260507040520 | 3 | 196 | 0.0 | 1.6 | 0.00 | 0.00 | 0.00 | 70 | 1012.8 |
| 20260507035537 | 3 | 158 | 1.6 | 3.2 | 0.00 | 0.00 | 0.00 | 69 | 1013.0 |
| 20260507034517 | 3 | 152 | 1.6 | 3.2 | 0.00 | 0.00 | 0.00 | 69 | 1013.3 |
| 20260507033517 | 2 | 178 | 0.0 | 1.6 | 0.00 | 0.00 | 0.00 | 71 | 1013.4 |
| 20260507032517 | 2 | 175 | 0.0 | 1.6 | 0.00 | 0.00 | 0.00 | 72 | 1013.3 |
| 20260507031518 | 2 | 157 | 0.0 | 1.6 | 0.00 | 0.00 | 0.00 | 75 | 1013.3 |
| 20260507030538 | 2 | 187 | 0.0 | 1.6 | 0.00 | 0.00 | 0.00 | 76 | 1013.4 |
| 20260507025518 | 2 | 195 | 0.0 | 1.6 | 0.00 | 0.00 | 0.00 | 77 | 1013.4 |
| 20260507024538 | 2 | 166 | 0.0 | 1.6 | 0.00 | 0.00 | 0.00 | 78 | 1013.4 |
| 20260507023539 | 2 | 195 | 1.6 | 1.6 | 0.00 | 0.00 | 0.00 | 77 | 1013.4 |
| 20260507022515 | 2 | 186 | 0.0 | 1.6 | 0.00 | 0.00 | 0.00 | 77 | 1013.4 |
| 20260507021516 | 2 | 210 | 0.0 | 1.6 | 0.00 | 0.00 | 0.00 | 77 | 1013.4 |
| 20260507020516 | 2 | 200 | 0.0 | 1.6 | 0.00 | 0.00 | 0.00 | 77 | 1013.4 |
| 20260507015516 | 2 | 171 | 0.0 | 1.6 | 0.00 | 0.00 | 0.00 | 77 | 1013.2 |
| 20260507014515 | 2 | 198 | 0.0 | 1.6 | 0.00 | 0.00 | 0.00 | 80 | 1013.3 |
| 20260507013516 | 2 | 176 | 0.0 | 1.6 | 0.00 | 0.00 | 0.00 | 84 | 1013.4 |
| 20260507012516 | 2 | 205 | 0.0 | 0.0 | 0.00 | 0.00 | 0.00 | 83 | 1013.5 |
| 20260507011517 | 2 | 159 | 3.2 | 6.4 | 0.00 | 0.00 | 0.00 | 84 | 1013.5 |
| 20260507010517 | 2 | 218 | 0.0 | 1.6 | 0.00 | 0.00 | 0.00 | 80 | 1013.4 |
| 20260507005537 | 2 | 296 | 0.0 | 1.6 | 0.00 | 0.00 | 0.00 | 79 | 1013.4 |
| 20260507004517 | 2 | 186 | 0.0 | 1.6 | 0.00 | 0.00 | 0.00 | 80 | 1013.5 |
| 20260507003517 | 2 | 273 | 0.0 | 1.6 | 0.00 | 0.00 | 0.00 | 79 | 1013.4 |
| 20260507002517 | 2 | 198 | 1.6 | 3.2 | 0.00 | 0.00 | 0.00 | 78 | 1013.4 |
| 20260507001517 | 2 | 199 | 0.0 | 1.6 | 0.00 | 0.00 | 0.00 | 79 | 1013.4 |
| 20260507000517 | 2 | 195 | 1.6 | 3.2 | 0.00 | 0.00 | 0.00 | 79 | 1013.3 |
| 20260506235518 | 2 | 240 | 1.6 | 1.6 | 0.00 | 0.00 | 0.00 | 77 | 1013.1 |
| 20260506234518 | 2 | 294 | 0.0 | 3.2 | 0.00 | 0.00 | 0.00 | 76 | 1013.2 |
| 20260506233518 | 2 | 256 | 1.6 | 3.2 | 0.00 | 0.00 | 0.00 | 76 | 1013.2 |
| 20260506232515 | 3 | 183 | 1.6 | 3.2 | 0.00 | 0.00 | 0.00 | 76 | 1013.2 |
| 20260506231538 | 3 | 290 | 0.0 | 1.6 | 0.00 | 0.00 | 0.00 | 76 | 1013.3 |
| 20260506230535 | 3 | 261 | 0.0 | 1.6 | 0.00 | 0.00 | 0.00 | 75 | 1013.3 |
| 20260506225518 | 3 | 255 | 0.0 | 3.2 | 0.00 | 0.00 | 0.00 | 74 | 1013.3 |
| 20260506224536 | 3 | 267 | 0.0 | 3.2 | 0.00 | 0.00 | 0.00 | 74 | 1013.3 |
| 20260506223515 | 3 | 245 | 0.0 | 3.2 | 0.00 | 0.00 | 0.00 | 73 | 1013.3 |
| 20260506222516 | 3 | 186 | 0.0 | 3.2 | 0.00 | 0.00 | 0.00 | 72 | 1013.3 |
| 20260506221516 | 3 | 248 | 0.0 | 1.6 | 0.00 | 0.00 | 0.00 | 73 | 1013.2 |
| 20260506220516 | 3 | 143 | 0.0 | 1.6 | 0.00 | 0.00 | 0.00 | 73 | 1013.2 |
| 20260506215516 | 3 | 175 | 0.0 | 1.6 | 0.00 | 0.00 | 0.00 | 73 | 1013.1 |
| 20260506214516 | 3 | 304 | 0.0 | 3.2 | 0.00 | 0.00 | 0.00 | 69 | 1013.1 |
| 20260506213517 | 3 | 296 | 1.6 | 3.2 | 0.00 | 0.00 | 0.00 | 68 | 1013.1 |
| 20260506212516 | 3 | 176 | 0.0 | 1.6 | 0.00 | 0.00 | 0.00 | 69 | 1013.2 |
| 20260506211517 | 4 | 207 | 0.0 | 3.2 | 0.00 | 0.00 | 0.00 | 69 | 1013.2 |
| 20260506210537 | 5 | 263 | 0.0 | 3.2 | 0.00 | 0.00 | 0.00 | 65 | 1013.0 |
| 20260506205516 | 5 | 287 | 0.0 | 1.6 | 0.00 | 0.00 | 0.00 | 65 | 1013.1 |
| 20260506204518 | 5 | 307 | 1.6 | 3.2 | 0.00 | 0.00 | 0.00 | 61 | 1013.0 |
| 20260506203537 | 5 | 333 | 1.6 | 3.2 | 0.00 | 0.00 | 0.00 | 60 | 1012.9 |
| 20260506202518 | 5 | 322 | 1.6 | 3.2 | 0.00 | 0.00 | 0.00 | 58 | 1012.9 |
| 20260506201518 | 5 | 337 | 1.6 | 3.2 | 0.00 | 0.00 | 0.00 | 58 | 1013.0 |
| 20260506200538 | 5 | 316 | 1.6 | 3.2 | 0.00 | 0.00 | 0.00 | 58 | 1012.9 |
| 20260506195518 | 5 | 25 | 1.6 | 4.8 | 0.00 | 0.00 | 0.00 | 57 | 1012.9 |
| 20260506194538 | 5 | 37 | 1.6 | 4.8 | 0.00 | 0.00 | 0.00 | 57 | 1013.0 |
| 20260506193515 | 5 | 73 | 1.6 | 3.2 | 0.00 | 0.00 | 0.00 | 57 | 1013.1 |
| 20260506192536 | 6 | 33 | 0.0 | 3.2 | 0.00 | 0.00 | 0.00 | 58 | 1013.2 |
| 20260506191536 | 6 | 353 | 1.6 | 4.8 | 0.00 | 0.00 | 0.00 | 57 | 1013.2 |
| 20260506190516 | 6 | 54 | 0.0 | 3.2 | 0.00 | 0.00 | 0.00 | 59 | 1013.3 |
| 20260506185516 | 6 | 93 | 0.0 | 1.6 | 0.00 | 0.00 | 0.00 | 58 | 1013.3 |
| 20260506184516 | 6 | 344 | 0.0 | 1.6 | 0.00 | 0.00 | 0.00 | 57 | 1013.2 |
| 20260506183516 | 6 | 336 | 0.0 | 1.6 | 0.00 | 0.00 | 0.00 | 56 | 1013.1 |
| 20260506182517 | 6 | 313 | 0.0 | 3.2 | 0.00 | 0.00 | 0.00 | 57 | 1013.0 |
| 20260506181517 | 7 | 41 | 1.6 | 4.8 | 0.00 | 0.00 | 0.00 | 54 | 1013.0 |
| 20260506180517 | 7 | 12 | 1.6 | 4.8 | 0.00 | 0.00 | 0.00 | 53 | 1012.9 |
| 20260506175518 | 7 | 11 | 1.6 | 4.8 | 0.00 | 0.00 | 0.00 | 53 | 1012.9 |
| 20260506174517 | 7 | 13 | 1.6 | 3.2 | 0.00 | 0.00 | 0.00 | 52 | 1012.8 |
| 20260506173517 | 7 | 40 | 1.6 | 6.4 | 0.00 | 0.00 | 0.00 | 50 | 1012.8 |
| 20260506172518 | 8 | 346 | 1.6 | 4.8 | 0.00 | 0.00 | 0.00 | 50 | 1012.8 |
| 20260506171518 | 8 | 12 | 1.6 | 4.8 | 0.00 | 0.00 | 0.00 | 49 | 1012.8 |
| 20260506170518 | 8 | 20 | 3.2 | 6.4 | 0.00 | 0.00 | 0.00 | 47 | 1012.8 |
| 20260506165518 | 8 | 23 | 1.6 | 6.4 | 0.00 | 0.00 | 0.00 | 46 | 1012.7 |
| 20260506164538 | 8 | 15 | 3.2 | 11.3 | 0.00 | 0.00 | 0.00 | 44 | 1012.6 |
| 20260506163516 | 9 | 36 | 3.2 | 8.0 | 0.00 | 0.00 | 0.00 | 37 | 1012.5 |
| 20260506162516 | 9 | 35 | 4.8 | 14.5 | 0.00 | 0.00 | 0.00 | 36 | 1012.5 |
| 20260506161516 | 9 | 21 | 4.8 | 8.0 | 0.00 | 0.00 | 0.00 | 37 | 1012.5 |
| 20260506160516 | 9 | 19 | 3.2 | 8.0 | 0.00 | 0.00 | 0.00 | 38 | 1012.5 |
| 20260506155516 | 10 | 0.0 | 0.0 | 0.00 | 0.00 | 0.00 | 38 | 1012.6 | |
| 20260506154536 | 10 | 34 | 4.8 | 11.3 | 0.00 | 0.00 | 0.00 | 38 | 1012.7 |
| 20260506153517 | 10 | 42 | 4.8 | 8.0 | 0.00 | 0.00 | 0.00 | 37 | 1012.7 |
| 20260506152517 | 10 | 30 | 3.2 | 8.0 | 0.00 | 0.00 | 0.00 | 37 | 1012.6 |
| 20260506151517 | 10 | 5 | 4.8 | 12.9 | 0.00 | 0.00 | 0.00 | 36 | 1012.8 |
| 20260506150537 | 10 | 28 | 4.8 | 11.3 | 0.00 | 0.00 | 0.00 | 36 | 1012.8 |
| 20260506145517 | 10 | 6 | 4.8 | 8.0 | 0.00 | 0.00 | 0.00 | 34 | 1013.0 |
| 20260506144517 | 10 | 352 | 4.8 | 8.0 | 0.00 | 0.00 | 0.00 | 34 | 1013.1 |
| 20260506143517 | 10 | 28 | 4.8 | 11.3 | 0.00 | 0.00 | 0.00 | 34 | 1012.9 |
| 20260506142518 | 10 | 15 | 4.8 | 12.9 | 0.00 | 0.00 | 0.00 | 35 | 1012.8 |
| 20260506141518 | 10 | 353 | 3.2 | 8.0 | 0.00 | 0.00 | 0.00 | 34 | 1013.0 |
| 20260506140518 | 11 | 18 | 6.4 | 11.3 | 0.00 | 0.00 | 0.00 | 35 | 1013.0 |
| 20260506135518 | 11 | 26 | 6.4 | 11.3 | 0.00 | 0.00 | 0.00 | 35 | 1012.9 |
| 20260506134518 | 11 | 347 | 3.2 | 9.7 | 0.00 | 0.00 | 0.00 | 33 | 1012.8 |
| 20260506133538 | 11 | 333 | 4.8 | 9.7 | 0.00 | 0.00 | 0.00 | 34 | 1012.8 |
| 20260506132515 | 11 | 33 | 3.2 | 16.1 | 0.00 | 0.00 | 0.00 | 34 | 1012.8 |
| 20260506131518 | 11 | 352 | 4.8 | 9.7 | 0.00 | 0.00 | 0.00 | 34 | 1012.9 |
| 20260506130516 | 11 | 344 | 4.8 | 9.7 | 0.00 | 0.00 | 0.00 | 34 | 1013.0 |
| 20260506125516 | 11 | 7 | 3.2 | 11.3 | 0.00 | 0.00 | 0.00 | 33 | 1013.1 |
| 20260506124536 | 11 | 20 | 3.2 | 11.3 | 0.00 | 0.00 | 0.00 | 34 | 1013.0 |
| 20260506123516 | 11 | 1 | 3.2 | 11.3 | 0.00 | 0.00 | 0.00 | 32 | 1012.9 |
| 20260506122516 | 11 | 34 | 3.2 | 12.9 | 0.00 | 0.00 | 0.00 | 31 | 1012.8 |
| 20260506121516 | 11 | 55 | 6.4 | 14.5 | 0.00 | 0.00 | 0.00 | 30 | 1012.7 |
| 20260506120517 | 11 | 84 | 3.2 | 11.3 | 0.00 | 0.00 | 0.00 | 32 | 1012.4 |
| 20260506115517 | 12 | 44 | 4.8 | 12.9 | 0.00 | 0.00 | 0.00 | 31 | 1011.9 |
| 20260506114537 | 12 | 43 | 4.8 | 11.3 | 0.00 | 0.00 | 0.00 | 33 | 1012.2 |
| 20260506113517 | 12 | 328 | 3.2 | 9.7 | 0.00 | 0.00 | 0.00 | 32 | 1012.3 |
| 20260506112537 | 11 | 349 | 3.2 | 8.0 | 0.00 | 0.00 | 0.00 | 32 | 1012.2 |
| 20260506111537 | 12 | 52 | 6.4 | 11.3 | 0.00 | 0.00 | 0.00 | 32 | 1012.5 |
| 20260506110538 | 12 | 17 | 3.2 | 9.7 | 0.00 | 0.00 | 0.00 | 33 | 1013.0 |
| 20260506105518 | 12 | 8 | 4.8 | 11.3 | 0.00 | 0.00 | 0.00 | 33 | 1012.2 |
| 20260506104518 | 12 | 292 | 3.2 | 9.7 | 0.00 | 0.00 | 0.00 | 32 | 1012.1 |
| 20260506103518 | 11 | 118 | 4.8 | 12.9 | 0.00 | 0.00 | 0.00 | 33 | 1012.0 |
| 20260506102518 | 11 | 12 | 3.2 | 12.9 | 0.00 | 0.00 | 0.00 | 32 | 1012.2 |
| 20260506101535 | 11 | 30 | 4.8 | 11.3 | 0.00 | 0.00 | 0.00 | 35 | 1013.9 |
| 20260506100516 | 12 | 36 | 6.4 | 11.3 | 0.00 | 0.00 | 0.00 | 33 | 1013.1 |
| 20260506095515 | 12 | 89 | 3.2 | 8.0 | 0.00 | 0.00 | 0.00 | 31 | 1012.2 |
| 20260506094516 | 12 | 244 | 3.2 | 6.4 | 0.00 | 0.00 | 0.00 | 34 | 1012.2 |
| 20260506093516 | 11 | 236 | 4.8 | 11.3 | 0.00 | 0.00 | 0.00 | 35 | 1012.1 |
| 20260506092516 | 11 | 245 | 3.2 | 9.7 | 0.00 | 0.00 | 0.00 | 33 | 1012.2 |
| 20260506091516 | 11 | 267 | 3.2 | 9.7 | 0.00 | 0.00 | 0.00 | 35 | 1012.1 |
| 20260506090516 | 11 | 345 | 4.8 | 11.3 | 0.00 | 0.00 | 0.00 | 35 | 1012.7 |